Regional Weather Roundup
Issued by NWS Albany, NY

Home | Current Version | Previous Version | Text Only | Print | Product List | Glossary On
Versions: 1 2 3 4 5 6 7 8 9 10 11 12 13 14 15 16 17 18 19 20 21 22 23 24 25 26 27
000
ASUS41 KALY 222110
RWRALY

NEW YORK STATE HOURLY WEATHER ROUNDUP
NATIONAL WEATHER SERVICE ALBANY NY
500 PM EDT FRI SEP 22 2017

NOTE: "FAIR" INDICATES FEW OR NO CLOUDS BELOW 12,000 FEET WITH NO
SIGNIFICANT WEATHER AND/OR NO OBSTRUCTIONS TO VISIBILITY.

NYZ032-033-038>043-046>054-057>066-NYZ062>081-082-084-222200-
EAST


CITY           SKY/WX    TMP DP  RH WIND       PRES   REMARKS
ALBANY         MOSUNNY   77  50  38 N7        30.04F
GLENS FALLS    SUNNY     77  47  34 NE8       30.04F
POUGHKEEPSIE   PTSUNNY   77  52  41 N13       29.97F
NEWBURGH       MOSUNNY   79  57  47 NE16G23   30.00F
MONTGOMERY     PTSUNNY   79  57  46 NE8       29.99S
WHITE PLAINS   MOSUNNY   78  56  46 N16       29.95S
ISLIP          PTSUNNY   77  61  57 N16       29.90S
NEW YORK CITY  MOSUNNY   80  56  43 N20G26    29.93F
CENTRAL PARK   MOSUNNY   80  55  42 NE8G23    29.97F
$$

NYZ005>009-017-018-044>046-055-056-222200-
CENTRAL


CITY           SKY/WX    TMP DP  RH WIND       PRES   REMARKS
FULTON         SUNNY     77  58  51 NW8       30.07F
SYRACUSE       MOSUNNY   80  56  43 NW8       30.05F
ROME           SUNNY     78  59  51 W7        30.05F
ELMIRA         MOSUNNY   80  57  45 NE7       30.07F
BINGHAMTON     SUNNY     75  49  39 N13       30.09F
MONTICELLO     SUNNY     78  52  40 N12       30.05S
$$

NYZ026>034-041>043-087-222200-
NORTH


CITY           SKY/WX    TMP DP  RH WIND       PRES   REMARKS
WATERTOWN      SUNNY     79  59  50 N8        30.07S
FORT DRUM      NOT AVBL
OGDENSBURG     FAIR      80  56  43 NE5       30.08S
MASSENA        SUNNY     78  55  44 E7        30.09F
SARANAC LAKE   SUNNY     78  30  17 NE7       30.10F
PLATTSBURGH    SUNNY     75  52  44 NE5       30.07F
$$

NYZ001>004-010>016-019>021-085-222200-
WEST


CITY           SKY/WX    TMP DP  RH WIND       PRES   REMARKS
NIAGARA FALLS  SUNNY     83  54  36 E5        30.09F
BUFFALO        PTSUNNY   81  52  36 E5        30.10F
DUNKIRK        CLOUDY    79  57  46 NE5       30.10F
JAMESTOWN      CLOUDY    77  58  51 N7        30.14F
WELLSVILLE     CLOUDY    77  54  44 NW8       30.16F
ROCHESTER      PTSUNNY   79  49  34 N7        30.10F
PENN YAN       CLOUDY    77  55  46 NW7       30.10F
$$

             KEY
       WCI = WIND CHILL INDEX
       VSB = VISIBILITY
       HX  = HEAT INDEX
$$




USA.gov is the U.S. government's official web portal to all federal, state and local government web resources and services.